Other Surface Observations
Issued by NWS

Home | Current Version | Previous Version | Text Only | Print | Product List | Glossary On
Versions: 1 2 3 4 5 6 7 8 9 10 11 12 13 14 15 16 17 18 19 20 21 22 23 24 25 26 27 28 29 30 31 32 33 34 35 36 37 38 39 40 41 42 43 44 45 46 47 48 49 50
843
SXUS52 KTAE 280606
OSOTAE
OSOTAE
North Florida/South Alabama/Southwest Georgia Weather Roundup
National Weather Service Tallahassee Florida
100 AM EST TUE FEB 28 2017

Note: "fair" indicates few or no clouds below 12,000 feet with no
significant weather and/or obstructions to visibility.

!FLZ017-115-028-034-025-280700
...North Florida...

CITY           SKY/WX    TMP DP  RH WIND       PRES   REMARKS
TALLAHASSEE    CLOUDY    63  58  83 NE6       30.26F
APALACHICOLA   MOCLDY    65  65 100 E3        30.24S
PERRY          CLEAR     64  62  94 CALM      30.26F
CROSS CITY     CLEAR     59  57  94 CALM      30.27F
JACKSONVILLE   MOCLDY    63  63 100 SE5       30.26F
$$

!FLZ112-006-005-002-011-280700
...Florida Panhandle...

CITY           SKY/WX    TMP DP  RH WIND       PRES   REMARKS
MARIANNA       CLEAR     60  55  83 SE5       30.25F
BONIFAY        NOT AVBL
PANAMA CITY NW CLOUDY    62  56  80 NE7       30.22F
TYNDALL AFB    CLOUDY    63  58  84 E5        30.23F
TYND DRONE APT CLOUDY    63  60  90 NE6       30.23F
DE FUNIAK SPR  MOCLDY    58  56  92 E3        30.24F
EGLIN AFB      CLOUDY    62  57  83 E3        30.21F
DESTIN         CLOUDY    66  63  90 E8        30.22F
HURLBURT       CLOUDY    64  57  78 E10       30.20F
CRESTVIEW      CLOUDY    60  56  86 E3        30.24F
PENSACOLA      CLOUDY    64  60  87 E8        30.20F
$$

!ALZ063-066-280700
...South Alabama...

CITY           SKY/WX    TMP DP  RH WIND       PRES   REMARKS
DOTHAN         CLEAR     56  56 100 SE8       30.28F
OZARK CAIRNS   PTCLDY    56  56 100 SE5       30.24F
FT RUCKER HELI FOG       54  54 100 CALM      30.24F VSB 1
RUCKER HELI 3  FAIR      56  56  99 NE6       30.23F
RUCKER HELI 2  FAIR      56  55  99 CALM      30.24F
FLORALA APT    CLEAR     58  55  90 SE6       30.25F
ANDALUSIA      PTCLDY    59  56  89 E7        30.22F
TROY           CLOUDY    57  57 100 SE3       30.24F
EUFALA         NOT AVBL
MOBILE         CLOUDY    61  58  90 SE9       30.19F
$$

!GAZ120>161-280700
...Southwest and South Central Georgia...

CITY           SKY/WX    TMP DP  RH WIND       PRES   REMARKS
THOMASVILLE    FAIR      61  57  88 E7        30.28F
BAINBRIDGE     CLEAR     59  54  82 SE5       30.26F
MOODY AFB      PTCLDY    60  55  86 NE8       30.27F
VALDOSTA       MOCLDY    60  56  86 N9        30.28F
MOULTRIE       CLEAR     59  54  82 E6        30.27F
BLAKELY          N/A     59  55  88 CALM      30.25F FOG
ALBANY         CLEAR     57  57 100 CALM      30.27F
TIFTON         FAIR      59  58  97 E6        30.25F
FITZGERALD     FAIR      60  60 100 SE3       30.27F
CORDELE        FAIR      61  60  95 CALM      30.27S
AMERICUS       FOG       54  54 100 CALM      30.28S VSB 1/4
HOMERVILLE     CLOUDY    63  61  94 N5        30.29S
$$

!GMZ750-755-770-775-280700
...Coastal and Buoy Obs...

STATION/POSITION TIME  TEMP    WIND        PRES    VSBY  WAVE
                       AIR SEA DIR/SP/G                  HT/PER
                 (UTC) (F)     (DEG/KT/KT) (MB)    (MI)  (FT/S)
KEATON BEACH     0600   64      60/  3/  4 1024.1F
CEDAR KEY        0500   67      20/  4/  5 1025.7R
C TOWER          0600   67     100/  8/  8 1024.4F
APALACHICOLA BUO 0450   70 69   CALM  /  2 1023.9          2/ 5
PANAMA CITY BUOY 0450   72 72              1023.8          3/ 6
MOBILE BUOY      NOT AVBL
ORANGE BCH AL BU 0450   65 69   80/ 16/ 17 1022.5          4/ 7
$$




USA.gov is the U.S. government's official web portal to all federal, state and local government web resources and services.